Simultaneous Nadir Overpasses (SNOs) Predictions

Prediction of SNOs between GOES-14 and NPP Satellite Orbit:

Table of predicted SNOs for the next 14.0 days since TLE Epoch: 6/24/2023
Index Date Time (GOES-14) GOES-14 Lat,Lon NPP Lat,Lon Distance(km) Time Diff (sec)
1 06/25/2023 08:50:33 -0.09,-108.67 0.45,-111.20 287.68 80
2 06/26/2023 08:34:29 -0.08,-108.67 -0.54,-106.67 228.28 80
3 06/27/2023 20:53:46 0.12,-108.58 -0.63,-111.99 387.71 80
4 06/28/2023 20:37:42 0.10,-108.58 0.37,-107.45 128.60 80
5 06/30/2023 08:56:51 -0.14,-108.66 0.76,-112.74 464.53 80
6 07/01/2023 08:40:47 -0.12,-108.66 -0.23,-108.21 50.85 80
7 07/03/2023 20:41:18 0.15,-108.54 0.02,-108.98 51.54 80
8 07/04/2023 20:25:14 0.13,-108.53 1.02,-104.46 464.27 80
9 07/06/2023 08:44:23 -0.17,-108.62 0.10,-109.74 128.91 80
10 07/07/2023 08:28:19 -0.15,-108.61 -0.90,-105.21 386.54 80
